星链-35177(STARLINK-35177)

导读 | 豆包AI

STARLINK-35177是美国SpaceX星链星座的一员,于2025年9月19日发射升空,属于Starlink Gen2系列卫星,主要为全球提供低延迟、高速率的宽带互联网服务,运行在近地轨道,通过多星组网实现全球覆盖,支撑民用通信、偏远地区网络接入等应用,是星链大规模组网建设的组成部分。

基本信息
目录编号:
65673
目录名称:
STARLINK-35177
国际标识:
2025-211X
轨道中心:
EARTH
卫星名称:
星链-35177
卫星全名:
星链-35177(STARLINK-35177)
卫星状态:
在轨 (已飞行197 天)
发射日期:
2025-09-19 UTC
国别 :
美国 (US)
星等 :
--
轨道信息
数据来源 国际轨道数据 AOE轨道数据
星历时间 2026-04-04T01:15:16+0800
18小时前
查看轨道信息
2026-04-03T22:00:00+0800
21小时前
查看轨道信息
半长轴 6927.581km 6927.605km
偏心率 0.0001579 0.0001205
轨道倾角 97.603° 97.603°
近地点辐角 109.204° 110.388°
升交点赤经 138.827° 138.694°
平近点角 250.936° 235.219°
近地点 548.35km 548.633km
远地点 550.538km 550.303km
周期 95.638分钟 95.639分钟
每日圈数 15.056721 15.056641
详细信息
固有亮度:
5
最大亮度:
2.5
卫星平台:
Starlink V1.0
覆盖范围:
全球
运营商:
太空探索技术公司
运营商所在国:
美国
制造商(研发单位):
太空探索技术公司
制造商所在国:
美国
使用方式:
暂无
卫星简介
Starlink 计划是 SpaceX 推出的全球卫星互联网项目,通过发射低轨道卫星,为全球尤其是偏远地区提供高速、低延迟的互联网服务。自 2019 年起,Starlink 已部署数千颗卫星,旨在缩小全球数字鸿沟,推动互联网普及。该项目还为军事、航空等行业提供通信支持,带来广泛经济效益。
2D轨道图
3D轨道图
轨道高度分析图
轨道倾角分析图
轨道综合分析图
查看轨道综合分析图